User: anonymous   Login
Location: 02324
(41.9834°N, 70.9022°W)
Time: 01:10:01
(UTC-04:00)
Language:

H-2A R/B - Orbit

View from above orbital plane
View from above orbital plane
View from above satellite
View from above satellite

Ground track
Ground track

The orbit data is extracted from the following two-line orbital elements,

1 36105U 09066B   18109.84134396 0.00000800  00000-0  43719-4 0    02
2 36105  97.3047 134.5771 0029660 359.9296   0.0702 15.13961431    04
Epoch (UTC): 19 April 2018 20:11:32
Eccentricity: 0.0029660
inclination: 97.3047°
perigee height: 503 km
apogee height: 544 km
right ascension of ascending node: 134.5771°
argument of perigee: 359.9296°
revolutions per day: 15.13961431
mean anomaly at epoch: 0.0702°
orbit number at epoch: 0

The dashed part of the orbit path shows where the satellite is in the earth's shadow,  

DLR